Zurück zum Katalog

STARLINK-11236

AktivKommunikationVLEO
NORAD 61062·PAYLOAD·🇺🇸 United States

Gestartet Sep 13, 2024 von Vandenberg Space Force Base

Loading…

Nächste Überflüge (nächste 24 Stunden)

TLE

AktuellSource: CelesTrak SupGP

Epoche: Sep 14, 2026, 20:58 UTC

1 61062C 24164N   26257.87409722 -.00046960  00000+0 -38681-3 0  2575
2 61062  53.1571  98.7287 0001167  91.1960 190.4968 15.69733661    16

Verfolge STARLINK-11236 in Echtzeit mit AllMySat

Download on the App Store